This demonstration page uses our WeatherBlox Daily Observations layout. Learn more.

Left ArrowRight Arrow

Hourly Observations for May 4, 2015

Temp ( °F °C ) Dew Point ( °F °C ) Humidity (%) Winds ( mph kmh ) Pressure ( in mb ) Visibility ( mi km ) Precip ( " mm )
12:53 am 00:53 Clear 70 21.1 55 12.8 59 59 SSE 13 20 29.78 1009 10 16 0.00 0.00
1:53 am 01:53 Mostly Clear 70 21.1 55 12.8 59 59 SSE 17 28 29.76 1008 10 16 0.00 0.00
2:53 am 02:53 Mostly Clear 71 21.7 54 12.2 55 55 SSE 26 43 29.71 1006 10 16 0.00 0.00
3:53 am 03:53 Clear 69 20.6 54 12.2 59 59 SW 18 30 29.74 1007 10 16 0.00 0.00
4:53 am 04:53 Clear 68 20 55 12.8 63 63 ESE 7 11 29.70 1006 10 16 0.00 0.00
5:53 am 05:53 Clear 70 21.1 54 12.2 57 57 VRB 5 7 29.73 1007 10 16 0.00 0.00
6:53 am 06:53 Mostly Cloudy with Light Rain 67 19.4 57 13.9 71 71 Calm 29.80 1009 10 16 0.00 0.03
7:17 am 07:17 Mostly Cloudy 67 19.4 58 14.4 73 73 Calm 29.83 1010 10 16 0.00 0.03
7:53 am 07:53 Cloudy 67 19.4 58 14.4 73 73 SSE 8 13 29.83 1010 10 16 0.00 0.03
8:53 am 08:53 Mostly Cloudy 66 18.9 60 15.6 81 81 SE 12 19 29.85 1011 10 16 0.00 0.03
9:53 am 09:53 Sunny 73 22.8 61 16.1 66 66 SSE 16 26 29.83 1010 10 16 0.00 0.00
10:51 am 10:51 Mostly Cloudy 73 23 59 15 61 61 SE 16 26 29.83 1010 10 16 0.00 0.00
10:53 am 10:53 Mostly Cloudy 74 23.3 59 15 60 60 ESE 15 24 29.84 1011 10 16 0.00 0.00
11:53 am 11:53 Cloudy 74 23.3 58 14.4 57 57 SE 15 24 29.85 1011 10 16 0.00 0.00
12:05 pm 12:05 Cloudy 75 23.9 58 14.4 55 55 SE 16 26 29.83 1010 10 16 0.00 0.00
12:53 pm 12:53 Cloudy 77 25 58 14.4 52 52 SE 14 22 29.83 1010 10 16 0.00 0.00
1:53 pm 13:53 Mostly Cloudy 81 27.2 57 13.9 44 44 SE 20 31 29.80 1009 10 16 0.00 0.00
2:53 pm 14:53 Partly Cloudy 83 28.3 57 13.9 41 41 SE 24 39 29.77 1008 10 16 0.00 0.00
3:53 pm 15:53 Mostly Sunny 82 27.8 56 13.3 41 41 SE 25 41 29.72 1007 10 16 0.00 0.03
4:53 pm 16:53 Partly Cloudy 78 25.6 57 13.9 48 48 SE 22 35 29.71 1006 10 16 0.00 0.00
5:38 pm 17:38 Sunny with Thunderstorms 75 24 57 14 54 54 SE 28 44 29.68 1005 10 16 0.00 0.00
5:53 pm 17:53 Sunny 75 23.9 57 13.9 54 54 SE 24 39 29.69 1005 10 16 0.00 0.00
6:53 pm 18:53 Sunny 75 23.9 57 13.9 54 54 SE 20 31 29.70 1006 10 16 0.00 0.00
7:53 pm 19:53 Partly Cloudy 75 23.9 58 14.4 55 55 ESE 20 31 29.67 1005 10 16 0.00 0.00
8:17 pm 20:17 Mostly Cloudy with Thunderstorms 75 23.9 58 14.4 55 55 ESE 17 28 29.68 1005 10 16 0.00 0.00
8:38 pm 20:38 Cloudy with Nearby Thunderstorms 73 23 59 15 61 61 undefined N/A 29.71 1006 10 16 0.00 0.00
8:53 pm 20:53 Cloudy with Thunderstorms 71 21.7 60 15.6 68 68 E 9 15 29.73 1007 10 16 0.02 0.51
9:53 pm 21:53 Cloudy with Strong Thunderstorms 68 20 63 17.2 84 84 E 12 19 29.77 1008 5 8 0.26 6.60
10:53 pm 22:53 Cloudy with Nearby Thunderstorms 67 19.4 62 16.7 84 84 SE 20 31 29.70 1006 7 11 0.11 2.79
11:04 pm 23:04 Cloudy with Thunderstorms 66 19 61 16 83 83 SE 20 31 29.74 1007 10 16 0.00 0.00
11:25 pm 23:25 Mostly Cloudy with Nearby Thunderstorms 65 18.3 59 15 81 81 SE 17 28 29.77 1008 10 16 0.00 0.03
11:53 pm 23:53 Mostly Cloudy 65 18.3 60 15.6 84 84 SE 13 20 29.75 1007 10 16 0.00 0.03

Powered by AerisWeather